COSMOS 2514 (751)

Last updated on Wed Oct 29 2025 00:03:19 GMT+0000 (Coordinated Universal Time)

1 41330U 16008A 25301.00132824 -.00000015 00000+0 00000+0 0 9992 2 41330 65.1589 320.9716 0013346 217.0517 142.9048 2.13102659 75677
UTC large
Height (km)
Speed (km/s)
/
Latitude / Longitude
Inclination (degrees)
Orbital Period (minutes)
Azimuth
Elevation
Range (km)
Doppler Factor

Next 0 passes for location: London (51.5072 / 0.1276)

Sorry there are no passes over London.